Weather History for VOTR - June, 2013

Change the Weather History Date:

Saturday, June 29, 2013

  Actual Average Record
Temperature  
Mean Temperature 90 °F -  
Max Temperature 102 °F 93 °F 104 °F (2014)
Min Temperature 79 °F 81 °F 75 °F (2003)
Cooling Degree Days 26    
Growing Degree Days 40 (Base 50)    
Moisture  
Dew Point 67 °F    
Average Humidity 47    
Maximum Humidity 62    
Minimum Humidity 17    
Precipitation  
Precipitation 0.00 in - - ()
Sea Level Pressure  
Sea Level Pressure 29.77 in    
Wind  
Wind Speed 11 mph ()    
Max Wind Speed 17 mph    
Max Gust Speed 28 mph    
Visibility 4.4 miles    
Events      
Averages and records for this station are not official NWS values.
T = Trace of Precipitation, MM = Missing Value Source: Averaged Metar Reports

Daily Weather History Graph

Daily Weather History Graph

Search for Another Location

Airport or City:

Trip Planner

Search our weather history database for the weather conditions in past years. The results will help you decide how hot, cold, wet, or windy it might be!

Date:

Astronomy

Jun. 29, 2013 Rise Set
Actual Time 5:56 AM IST 6:41 PM IST
Civil Twilight 5:33 AM IST 7:04 PM IST
Nautical Twilight 5:05 AM IST 7:31 PM IST
Astronomical Twilight 4:38 AM IST 7:58 PM IST
Moon 11:45 PM IST (6/29) 11:25 AM IST (6/29)
Length of Visible Light 13h 31m
Length of Day
12h 44m
Waning Gibbous, 60% of the Moon is Illuminated
Jun 29
Waning Gibbous
Jun 30
Last Quarter
Jul 8
New
Jul 16
First Quarter
Jul 22
Full

Hourly Weather History & Observations

Time (IST) Temp. Heat Index Dew Point Humidity Pressure Visibility Wind Dir Wind Speed Gust Speed Precip Events Conditions
12:10 AM 84.2 °F 87.3 °F 68.0 °F 58% 29.80 in 3.7 mi West 11.5 mph - N/A   Mostly Cloudy
12:40 AM 84.2 °F 87.3 °F 68.0 °F 58% 29.80 in 3.7 mi West 11.5 mph - N/A   Mostly Cloudy
1:10 AM 84.2 °F 87.3 °F 68.0 °F 58% 29.80 in 3.7 mi West 8.1 mph - N/A   Scattered Clouds
1:40 AM 84.2 °F 87.3 °F 68.0 °F 58% 29.77 in 3.7 mi West 10.4 mph - N/A   Scattered Clouds
2:10 AM 84.2 °F 87.3 °F 68.0 °F 58% 29.77 in 3.7 mi West 11.5 mph - N/A   Mostly Cloudy
2:30 AM 83 °F - 66 °F 48% 29.76 in 2 mi West 11.5 mph - -   Haze
2:40 AM 84.2 °F 87.3 °F 68.0 °F 58% 29.77 in 3.7 mi West 9.2 mph - N/A   Mostly Cloudy
3:10 AM 84.2 °F 87.3 °F 68.0 °F 58% 29.77 in 3.7 mi West 11.5 mph - N/A   Scattered Clouds
3:40 AM 82.4 °F 85.4 °F 68.0 °F 62% 29.77 in 3.7 mi West 12.7 mph - N/A   Scattered Clouds
4:10 AM 82.4 °F 85.4 °F 68.0 °F 62% 29.74 in 3.7 mi West 13.8 mph - N/A   Scattered Clouds
4:40 AM 82.4 °F 85.4 °F 68.0 °F 62% 29.77 in 3.7 mi West 15.0 mph - N/A   Scattered Clouds
5:10 AM 82.4 °F 85.4 °F 68.0 °F 62% 29.77 in 3.7 mi West 12.7 mph - N/A   Scattered Clouds
5:30 AM 82 °F - 67 °F 51% 29.76 in 2 mi West 11.5 mph - -   Haze
5:40 AM 82.4 °F 85.4 °F 68.0 °F 62% 29.77 in 3.7 mi West 12.7 mph - N/A   Scattered Clouds
6:10 AM 82.4 °F 85.4 °F 68.0 °F 62% 29.77 in 3.7 mi West 10.4 mph - N/A   Scattered Clouds
6:40 AM 84.2 °F 87.3 °F 68.0 °F 58% 29.80 in 3.7 mi West 11.5 mph - N/A   Scattered Clouds
7:10 AM 84.2 °F 87.3 °F 68.0 °F 58% 29.80 in 3.7 mi WNW 12.7 mph - N/A   Scattered Clouds
7:40 AM 86.0 °F 89.4 °F 68.0 °F 55% 29.80 in 3.7 mi West 12.7 mph - N/A   Scattered Clouds
8:10 AM 86.0 °F 89.4 °F 68.0 °F 55% 29.80 in 5.0 mi West 13.8 mph - N/A   Scattered Clouds
8:30 AM 85 °F - 67 °F 46% 29.81 in 2 mi WNW 9.2 mph - -   Haze
8:40 AM 86.0 °F 89.4 °F 68.0 °F 55% 29.80 in 5.0 mi West 12.7 mph - N/A   Scattered Clouds
9:10 AM 86.0 °F 89.4 °F 68.0 °F 55% 29.80 in 5.0 mi West 15.0 mph - N/A   Scattered Clouds
9:40 AM 87.8 °F 91.4 °F 68.0 °F 52% 29.80 in 5.0 mi West 15.0 mph - N/A   Scattered Clouds
10:10 AM 89.6 °F 93.4 °F 68.0 °F 49% 29.80 in 5.0 mi WNW 16.1 mph - N/A   Scattered Clouds
10:40 AM 91.4 °F 94.0 °F 66.2 °F 43% 29.80 in 5.0 mi WNW 17.3 mph - N/A   Scattered Clouds
11:10 AM 93.2 °F 97.7 °F 68.0 °F 44% 29.80 in 5.0 mi West 13.8 mph - N/A   Scattered Clouds
11:30 AM 95 °F - 65 °F 27% 29.78 in 2 mi WNW 13.8 mph - -   Haze
11:40 AM 95.0 °F 98.5 °F 66.2 °F 39% 29.77 in 5.0 mi West 15.0 mph - N/A   Scattered Clouds
12:10 PM 96.8 °F 100.7 °F 66.2 °F 37% 29.77 in 5.0 mi WNW 16.1 mph - N/A   Scattered Clouds
12:40 PM 96.8 °F 101.8 °F 68.0 °F 39% 29.77 in 6.2 mi West 13.8 mph - N/A   Scattered Clouds
1:10 PM 96.8 °F 101.8 °F 68.0 °F 39% 29.74 in 6.2 mi WNW 17.3 mph - N/A   Scattered Clouds
1:40 PM 96.8 °F 101.8 °F 68.0 °F 39% 29.74 in 6.2 mi WNW 16.1 mph - N/A   Scattered Clouds
2:10 PM 98.6 °F 104.1 °F 68.0 °F 37% 29.71 in 6.2 mi WNW 13.8 mph - N/A   Scattered Clouds
2:30 PM 101 °F - 63 °F 20% 29.71 in 6 mi WNW 12.7 mph - -   Partly Cloudy
2:40 PM 100.4 °F 104.9 °F 66.2 °F 33% 29.71 in 6.2 mi NW 16.1 mph - N/A   Scattered Clouds
3:10 PM 102.2 °F 105.5 °F 64.4 °F 29% 29.71 in 6.2 mi WNW 16.1 mph 27.6 mph N/A   Scattered Clouds
3:40 PM 100.4 °F 104.9 °F 66.2 °F 33% 29.71 in 6.2 mi WNW 15.0 mph 26.5 mph N/A   Partly Cloudy
4:10 PM 100.4 °F 103.6 °F 64.4 °F 31% 29.68 in 6.2 mi West 15.0 mph 26.5 mph N/A   Partly Cloudy
4:40 PM 100.4 °F 103.6 °F 64.4 °F 31% 29.68 in 6.2 mi West 15.0 mph 26.5 mph N/A   Partly Cloudy
5:10 PM 98.6 °F 102.8 °F 66.2 °F 35% 29.71 in 6.2 mi West 13.8 mph 25.3 mph N/A   Scattered Clouds
5:30 PM 100 °F - 60 °F 17% 29.69 in 6 mi WNW 13.8 mph - -   Scattered Clouds
5:40 PM 100.4 °F 103.6 °F 64.4 °F 31% 29.71 in 6.2 mi West 13.8 mph 25.3 mph N/A   Scattered Clouds
6:10 PM 96.8 °F 100.7 °F 66.2 °F 37% 29.71 in 6.2 mi West 15.0 mph 26.5 mph N/A   Partly Cloudy
6:40 PM 95.0 °F 97.0 °F 64.4 °F 36% 29.74 in 5.0 mi West 13.8 mph 25.3 mph N/A   Scattered Clouds
7:10 PM 93.2 °F 94.9 °F 64.4 °F 38% 29.77 in 3.7 mi West 11.5 mph - N/A   Scattered Clouds
7:40 PM 91.4 °F 94.0 °F 66.2 °F 43% 29.77 in 3.7 mi SW 9.2 mph - N/A   Scattered Clouds
8:10 PM 91.4 °F 94.0 °F 66.2 °F 43% 29.77 in 3.7 mi SSW 4.6 mph - N/A   Scattered Clouds
8:30 PM 90 °F - 70 °F 42% 29.78 in 2 mi SSW 4.6 mph - -   Partly Cloudy
8:40 PM 89.6 °F 94.7 °F 69.8 °F 52% 29.80 in 3.7 mi SW 4.6 mph - N/A   Scattered Clouds
9:10 PM 89.6 °F 94.7 °F 69.8 °F 52% 29.80 in 3.7 mi Variable 3.5 mph - N/A   Scattered Clouds
9:40 PM 87.8 °F 92.6 °F 69.8 °F 55% 29.80 in 3.7 mi Variable 3.5 mph - N/A   Scattered Clouds
10:10 PM 87.8 °F 92.6 °F 69.8 °F 55% 29.83 in 3.7 mi SW 4.6 mph - N/A   Scattered Clouds
10:40 PM 86.0 °F 91.8 °F 71.6 °F 62% 29.83 in 3.7 mi SW 4.6 mph - N/A   Scattered Clouds
11:10 PM 86.0 °F 91.8 °F 71.6 °F 62% 29.83 in 3.7 mi West 3.5 mph - N/A   Scattered Clouds
11:30 PM 86 °F - 68 °F 46% 29.81 in 2 mi West 6.9 mph - -   Partly Cloudy
11:40 PM 86.0 °F 89.4 °F 68.0 °F 55% 29.83 in 3.7 mi West 6.9 mph - N/A   Scattered Clouds